TimeEST,TemperatureF,Dew PointF,Humidity,Sea Level PressureIn,VisibilityMPH,Wind Direction,Wind SpeedMPH,Gust SpeedMPH,PrecipitationIn,Events,Conditions,WindDirDegrees,DateUTC
12:15 AM,28.8,25.0,86,30.30,10.0,Calm,Calm,-,N/A,,Clear,0,2013-02-22 05:15:00
12:35 AM,28.4,25.3,88,30.32,10.0,Calm,Calm,-,N/A,,Clear,0,2013-02-22 05:35:00
1:15 AM,28.4,25.7,90,30.32,10.0,Calm,Calm,-,N/A,,Clear,0,2013-02-22 06:15:00
1:35 AM,29.3,24.6,83,30.32,10.0,Calm,Calm,-,N/A,,Clear,0,2013-02-22 06:35:00
1:55 AM,29.3,24.8,83,30.33,10.0,Calm,Calm,-,N/A,,Clear,0,2013-02-22 06:55:00
2:15 AM,29.8,25.2,83,30.33,10.0,Calm,Calm,-,N/A,,Clear,0,2013-02-22 07:15:00
2:35 AM,29.8,25.0,82,30.35,10.0,Calm,Calm,-,N/A,,Clear,0,2013-02-22 07:35:00
2:55 AM,30.0,25.5,83,30.35,10.0,Calm,Calm,-,N/A,,Clear,0,2013-02-22 07:55:00
3:15 AM,31.1,24.3,76,30.36,10.0,Calm,Calm,-,N/A,,Clear,0,2013-02-22 08:15:00
3:35 AM,30.7,24.8,79,30.36,10.0,Calm,Calm,-,N/A,,Clear,0,2013-02-22 08:35:00
3:55 AM,31.5,25.0,77,30.36,10.0,Calm,Calm,-,N/A,,Clear,0,2013-02-22 08:55:00
4:35 AM,30.6,27.1,87,30.35,10.0,Calm,Calm,-,N/A,,Clear,0,2013-02-22 09:35:00
4:55 AM,31.1,25.3,79,30.31,10.0,ENE,3.5,-,N/A,,Clear,70,2013-02-22 09:55:00
5:15 AM,31.3,24.6,76,30.34,10.0,Calm,Calm,-,N/A,,Clear,0,2013-02-22 10:15:00
5:35 AM,32.0,24.1,73,30.33,10.0,Calm,Calm,-,N/A,,Clear,0,2013-02-22 10:35:00
5:55 AM,32.0,24.6,74,30.33,10.0,Calm,Calm,-,N/A,,Mostly Cloudy,0,2013-02-22 10:55:00
6:15 AM,32.0,24.6,74,30.34,10.0,Calm,Calm,-,N/A,,Overcast,0,2013-02-22 11:15:00
6:35 AM,32.0,24.6,74,30.35,10.0,Calm,Calm,-,N/A,,Overcast,0,2013-02-22 11:35:00
6:55 AM,32.0,24.6,74,30.34,10.0,NE,3.5,-,N/A,,Overcast,50,2013-02-22 11:55:00
7:15 AM,32.0,24.6,74,30.36,10.0,Calm,Calm,-,N/A,,Overcast,0,2013-02-22 12:15:00
7:35 AM,32.2,24.4,73,30.35,10.0,ENE,4.6,-,N/A,,Overcast,60,2013-02-22 12:35:00
7:55 AM,32.4,24.4,73,30.34,10.0,NE,4.6,-,N/A,,Overcast,50,2013-02-22 12:55:00
8:35 AM,32.9,24.6,72,30.34,10.0,NE,5.8,-,N/A,,Overcast,50,2013-02-22 13:35:00
8:55 AM,33.6,24.8,70,30.33,10.0,ENE,9.2,-,N/A,,Overcast,70,2013-02-22 13:55:00
9:15 AM,34.0,25.2,70,30.32,10.0,East,8.1,-,N/A,,Overcast,80,2013-02-22 14:15:00
9:35 AM,34.7,25.7,70,30.32,10.0,ESE,5.8,-,N/A,,Overcast,110,2013-02-22 14:35:00
9:55 AM,34.7,25.7,70,30.32,10.0,ESE,4.6,-,N/A,,Overcast,110,2013-02-22 14:55:00
10:15 AM,35.2,25.9,69,30.32,10.0,SE,5.8,-,N/A,,Overcast,130,2013-02-22 15:15:00
10:35 AM,35.2,25.7,68,30.33,10.0,SSE,5.8,-,N/A,,Overcast,160,2013-02-22 15:35:00
10:55 AM,34.9,27.0,73,30.33,10.0,SSE,5.8,-,N/A,Rain,Light Rain,160,2013-02-22 15:55:00
11:15 AM,34.3,28.6,79,30.33,10.0,SSE,6.9,-,N/A,,Drizzle,150,2013-02-22 16:15:00
11:35 AM,34.7,28.8,79,30.33,10.0,South,3.5,-,N/A,Rain,Light Rain,170,2013-02-22 16:35:00
11:55 AM,34.7,29.1,80,30.32,10.0,SSW,4.6,-,N/A,Rain,Light Rain,200,2013-02-22 16:55:00
12:15 PM,34.0,30.9,89,30.31,5.0,South,3.5,-,N/A,Rain,Light Rain,170,2013-02-22 17:15:00
12:35 PM,34.2,31.5,90,30.30,10.0,SSE,3.5,-,N/A,,Overcast,160,2013-02-22 17:35:00
12:55 PM,34.0,31.1,89,30.31,10.0,South,3.5,-,N/A,,Overcast,170,2013-02-22 17:55:00
1:15 PM,34.0,31.5,90,30.30,10.0,SE,5.8,-,N/A,,Overcast,140,2013-02-22 18:15:00
1:35 PM,34.0,31.6,91,30.29,10.0,Calm,Calm,-,N/A,,Overcast,0,2013-02-22 18:35:00
1:55 PM,34.0,31.6,91,30.28,10.0,SE,4.6,-,N/A,,Overcast,130,2013-02-22 18:55:00
2:15 PM,34.9,31.8,89,30.28,10.0,SE,5.8,-,N/A,,Overcast,130,2013-02-22 19:15:00
2:35 PM,35.1,32.0,89,30.26,10.0,SE,4.6,-,N/A,,Overcast,130,2013-02-22 19:35:00
2:55 PM,35.1,32.0,89,30.27,10.0,SE,3.5,-,N/A,,Overcast,130,2013-02-22 19:55:00
3:15 PM,35.4,32.0,87,30.26,10.0,ESE,3.5,-,N/A,,Overcast,110,2013-02-22 20:15:00
3:35 PM,35.4,32.0,87,30.26,10.0,SE,3.5,-,N/A,,Overcast,130,2013-02-22 20:35:00
3:55 PM,35.6,32.0,87,30.26,10.0,East,5.8,-,N/A,,Overcast,80,2013-02-22 20:55:00
4:15 PM,35.4,32.0,87,30.26,10.0,ESE,5.8,-,N/A,,Overcast,110,2013-02-22 21:15:00
4:35 PM,35.2,32.4,89,30.26,10.0,East,4.6,-,N/A,,Overcast,100,2013-02-22 21:35:00
4:55 PM,35.1,32.9,92,30.25,10.0,ESE,8.1,-,N/A,,Overcast,110,2013-02-22 21:55:00
5:15 PM,34.7,32.5,92,30.25,10.0,ESE,5.8,-,N/A,,Overcast,110,2013-02-22 22:15:00
5:35 PM,34.7,32.2,91,30.25,10.0,East,4.6,-,N/A,,Overcast,100,2013-02-22 22:35:00
5:55 PM,34.3,32.4,92,30.25,10.0,ESE,6.9,-,N/A,,Overcast,110,2013-02-22 22:55:00
6:15 PM,34.2,32.5,94,30.24,10.0,East,5.8,-,N/A,,Overcast,100,2013-02-22 23:15:00
6:35 PM,34.3,32.9,94,30.24,10.0,ESE,5.8,-,N/A,,Overcast,110,2013-02-22 23:35:00
6:55 PM,34.2,32.9,95,30.25,10.0,ESE,5.8,-,N/A,,Overcast,110,2013-02-22 23:55:00
7:15 PM,34.2,32.9,95,30.24,10.0,East,4.6,-,N/A,,Overcast,100,2013-02-23 00:15:00
7:35 PM,34.2,32.9,95,30.24,10.0,East,4.6,-,N/A,,Overcast,100,2013-02-23 00:35:00
7:55 PM,34.2,32.9,95,30.24,10.0,ESE,4.6,-,N/A,,Overcast,110,2013-02-23 00:55:00
8:15 PM,34.3,33.3,96,30.24,10.0,ESE,4.6,-,N/A,,Overcast,120,2013-02-23 01:15:00
8:35 PM,34.3,33.3,96,30.23,10.0,ESE,4.6,-,N/A,,Overcast,110,2013-02-23 01:35:00
8:55 PM,34.3,33.3,96,30.23,10.0,ESE,4.6,-,N/A,,Overcast,110,2013-02-23 01:55:00
9:15 PM,34.3,33.4,97,30.23,10.0,ESE,3.5,-,N/A,,Overcast,120,2013-02-23 02:15:00
9:35 PM,34.7,33.4,95,30.23,10.0,ESE,4.6,-,N/A,,Overcast,110,2013-02-23 02:35:00
9:55 PM,34.7,33.8,97,30.23,10.0,ESE,3.5,-,N/A,,Overcast,120,2013-02-23 02:55:00
10:15 PM,34.7,33.8,97,30.22,10.0,SE,3.5,-,N/A,,Overcast,130,2013-02-23 03:15:00
10:35 PM,34.7,33.8,97,30.22,10.0,SE,3.5,-,N/A,,Overcast,140,2013-02-23 03:35:00
10:55 PM,34.7,34.2,98,30.21,10.0,Calm,Calm,-,N/A,,Overcast,0,2013-02-23 03:55:00
11:15 PM,34.7,34.3,99,30.21,10.0,SE,4.6,-,N/A,,Overcast,130,2013-02-23 04:15:00
11:35 PM,34.7,34.7,100,30.21,7.0,Calm,Calm,-,N/A,,Overcast,0,2013-02-23 04:35:00
11:55 PM,34.7,34.7,100,30.20,10.0,Calm,Calm,-,N/A,,Overcast,0,2013-02-23 04:55:00